Theta_e
330 330 324 322 310 308 304 305 312 312 316 322 323 324 324 324 320 318 337 341 341 344 352 353 356 356 356 355 353 352 352 351 351 351 351 351 350 347 345 345 341 338 337 336 336 336 335 334 334
331 321 326 319 305 302 304 310 308 313 317 321 322 323 323 323 329 328 331 342 343 346 353 346 356 355 355 355 353 351 351 350 350 350 349 348 347 345 342 342 340 338 338 338 338 337 337 335 335
324 323 316 310 306 302 304 309 311 313 317 319 319 323 324 322 331 329 337 342 344 348 352 348 356 355 355 355 353 352 351 350 350 349 348 347 347 345 344 343 342 339 338 339 339 338 338 339 338
319 318 316 307 304 307 308 311 313 313 319 321 322 320 324 331 332 334 340 341 343 345 348 351 355 355 355 355 353 352 351 350 350 349 348 348 347 346 345 345 344 341 340 340 340 339 339 340 340
321 317 305 303 304 308 312 312 315 314 316 318 321 320 324 331 337 338 340 339 340 342 345 348 355 355 355 355 354 352 350 350 350 350 349 347 347 347 346 344 342 341 342 342 342 341 341 341 342
312 313 302 300 304 308 311 314 314 314 316 318 319 321 325 334 337 338 339 340 339 342 346 345 355 355 355 355 354 352 350 349 349 349 348 348 347 347 345 344 343 342 343 343 343 343 343 344 344
309 307 302 303 303 304 308 314 311 313 314 317 322 320 327 329 337 339 340 342 343 343 346 346 351 353 355 355 354 352 351 350 349 349 348 348 348 347 346 345 345 345 345 344 344 345 346 345 345
314 309 302 303 301 303 311 313 315 313 313 322 323 320 323 327 337 340 340 341 343 344 343 347 349 348 347 348 355 353 352 350 350 349 349 348 348 347 346 346 346 346 345 344 346 346 346 347 347
319 307 303 303 302 303 309 310 314 320 317 320 321 322 324 334 339 337 336 336 338 339 343 345 344 347 347 344 346 354 352 351 351 350 349 347 341 342 342 343 347 347 347 347 347 347 347 346 346
312 307 306 310 308 306 309 310 313 315 316 319 320 324 325 328 332 334 335 335 335 337 340 343 345 344 347 343 346 352 348 348 347 344 345 344 340 342 341 344 348 348 348 348 349 348 347 345 342
313 308 310 311 311 310 309 310 314 313 313 319 319 321 324 324 326 327 329 335 334 338 341 343 347 346 345 344 344 346 348 347 348 347 349 349 341 342 342 341 344 345 347 344 345 346 346 344 343
308 313 313 313 313 311 309 312 311 312 313 319 320 323 323 324 326 326 328 330 333 337 342 345 349 349 348 343 343 344 344 346 347 347 352 350 345 345 343 339 339 342 342 342 343 343 346 346 345
309 310 313 313 313 312 313 311 313 314 317 319 320 322 323 325 326 328 329 331 332 333 337 343 349 354 351 350 345 347 348 345 348 348 349 348 345 346 343 341 338 339 341 341 342 343 345 345 345
310 310 311 313 312 313 310 311 314 317 321 321 322 323 324 324 325 327 328 330 333 335 337 340 344 351 355 354 354 351 349 348 347 347 347 351 347 349 342 341 339 337 339 340 341 341 343 344 344
307 304 307 310 311 309 313 308 311 317 320 320 320 322 323 324 325 325 328 331 334 334 337 340 343 346 351 352 352 352 348 348 345 346 351 350 351 351 348 341 339 337 341 342 341 341 344 345 347
301 302 298 306 309 311 309 303 312 317 317 317 319 321 321 323 325 326 328 331 335 335 336 339 336 337 345 350 348 347 347 346 347 347 349 351 351 350 348 343 340 339 340 340 337 336 339 344 343
300 294 298 301 308 308 306 304 312 316 316 316 318 319 320 322 325 328 329 331 332 335 337 337 342 340 341 347 346 350 351 347 347 348 348 351 350 350 348 346 343 344 338 337 335 336 344 342 341
293 296 297 298 305 306 304 304 309 313 314 315 317 318 319 321 323 327 328 330 331 333 340 345 342 343 344 341 347 345 346 347 347 348 349 351 350 350 347 347 346 343 338 335 335 346 343 339 337
296 296 297 301 305 304 304 304 307 311 311 313 315 317 318 320 323 325 326 328 329 333 341 345 343 348 343 341 341 342 343 345 346 348 351 351 350 350 347 346 345 344 339 339 346 343 340 339 340
294 294 295 300 302 303 303 303 307 310 310 313 314 315 317 319 321 322 324 326 328 332 336 339 341 345 345 343 345 345 346 347 347 348 351 352 350 351 349 347 345 343 339 344 345 343 338 339 337
293 292 294 295 300 303 301 300 304 308 311 313 314 315 316 316 317 319 320 323 326 328 333 336 340 344 347 347 347 348 348 346 345 346 348 349 350 350 349 348 346 346 344 343 345 342 340 334 332
289 295 294 295 295 292 301 291 301 305 306 309 311 313 314 315 317 318 319 321 324 326 328 334 338 344 346 348 347 348 342 341 343 345 348 349 350 349 349 349 347 348 344 345 342 341 342 339 331
291 296 294 296 294 294 295 294 298 304 303 306 310 312 313 314 315 316 317 319 321 323 325 333 336 343 347 348 347 344 348 345 346 346 350 351 350 349 349 349 348 348 344 345 343 343 341 337 335
296 294 294 294 294 288 293 293 294 298 302 305 309 310 310 312 314 316 318 320 320 322 324 328 336 345 348 348 347 349 349 348 345 347 346 346 348 348 348 347 348 347 346 344 343 343 340 338 336
293 290 283 282 283 285 295 292 296 303 304 306 307 308 310 312 314 316 318 320 321 322 325 332 340 345 348 348 348 349 350 351 350 348 345 345 341 341 346 346 346 344 345 345 343 342 340 337 335
291 289 284 278 282 285 293 288 295 304 306 308 308 310 310 314 317 320 324 327 321 322 328 337 341 344 346 347 348 350 351 347 346 346 343 341 340 341 348 346 346 344 344 342 342 340 337 338 335
291 286 292 286 288 287 291 294 299 303 304 306 305 308 309 314 320 325 329 330 326 325 332 338 342 345 346 346 347 348 347 347 345 347 347 342 345 343 346 346 344 343 343 341 341 336 337 336 337
293 294 285 287 280 280 287 291 292 298 300 304 305 307 309 313 317 323 330 330 327 333 339 343 345 345 345 346 346 345 346 345 346 345 343 344 344 343 343 343 343 341 340 340 339 337 336 336 339
291 289 289 289 287 281 284 289 300 301 303 304 305 307 309 311 315 321 330 331 333 337 340 344 344 344 344 345 344 343 342 343 343 343 343 343 344 342 340 339 339 338 338 339 338 336 335 334 335
293 289 288 285 285 288 288 291 303 305 305 306 305 308 310 312 314 322 330 328 334 337 341 342 343 342 342 342 341 341 342 342 342 341 342 342 340 340 339 338 336 336 336 336 335 334 334 331 333
Wind_Speed
10 9 4 6 9 8 13 9 14 6 9 3 2 6 11 2 12 1 5 14 13 19 20 23 22 22 21 19 18 17 17 17 16 15 15 15 15 14 14 14 14 14 13 11 10 10 6 4 4
8 6 6 5 10 12 11 13 12 8 5 5 10 12 9 12 7 1 10 13 16 18 20 22 23 22 22 20 19 18 18 17 17 16 16 16 15 14 14 13 13 13 13 12 10 9 9 6 4
7 7 7 7 13 16 10 7 12 10 3 9 5 5 11 8 8 2 10 15 16 17 18 20 24 21 21 20 19 19 18 18 18 17 17 16 15 13 13 12 12 12 12 11 11 9 8 7 5
7 6 6 12 18 15 17 2 2 7 3 1 6 7 7 2 1 6 15 17 16 17 18 18 24 21 21 20 19 19 18 17 16 17 17 16 15 14 13 12 12 13 12 11 10 9 8 6 5
6 5 11 16 22 20 11 14 8 11 8 8 6 12 8 4 3 6 17 15 15 16 17 18 19 19 18 18 18 16 16 16 16 15 15 14 13 13 12 13 13 13 12 11 9 8 7 6 5
8 6 12 17 20 16 17 15 13 15 14 12 10 15 10 4 8 11 15 14 13 14 13 13 16 16 16 17 18 18 18 17 15 15 14 13 13 12 13 13 13 13 12 12 11 9 8 7 6
14 11 17 20 18 15 17 13 15 16 12 12 6 11 5 6 6 10 13 12 10 11 11 12 16 17 16 17 17 18 18 17 16 15 14 14 13 13 13 13 14 14 13 12 11 12 10 9 7
11 10 20 18 15 21 14 9 13 11 16 3 5 7 9 5 2 7 10 12 10 10 12 12 12 16 16 16 15 16 16 16 16 16 16 16 15 15 15 14 14 14 14 15 13 12 11 9 8
14 13 16 21 16 15 10 14 16 4 11 5 1 4 6 4 4 4 7 11 11 10 11 12 14 14 15 15 14 14 16 16 16 16 17 15 13 15 17 16 14 17 17 15 13 12 11 8 9
15 16 23 16 12 13 17 18 11 7 13 12 8 7 3 6 5 4 9 13 15 15 14 13 13 13 12 11 12 14 15 14 15 16 17 14 15 13 14 15 14 17 15 14 12 10 11 8 7
22 25 19 19 13 15 19 19 16 14 17 13 11 8 5 5 5 4 6 11 14 15 11 12 10 11 12 11 9 8 9 10 12 18 14 14 12 12 11 9 10 11 15 10 12 10 10 9 6
26 24 25 21 16 14 20 19 23 21 22 21 7 11 14 12 11 9 8 8 12 13 12 10 12 11 13 10 11 11 10 11 10 13 16 11 10 11 11 10 11 11 9 11 10 8 9 8 7
29 28 22 20 20 19 15 24 23 23 22 21 18 16 17 18 13 11 11 12 10 11 10 11 11 12 11 14 11 11 11 11 11 12 15 14 13 11 12 11 11 10 10 10 9 9 7 8 8
21 25 29 26 20 18 23 26 25 21 22 21 20 21 20 16 15 13 14 14 13 10 9 9 10 10 12 13 13 11 10 11 11 12 13 18 13 10 12 11 12 10 10 9 9 8 8 8 6
24 28 25 21 26 28 18 24 38 24 26 21 19 19 19 18 17 15 15 14 11 10 8 9 8 9 11 13 13 10 10 10 11 12 14 16 16 13 13 12 12 11 9 9 7 8 9 7 6
18 23 25 31 24 24 23 31 37 25 26 28 26 23 21 20 17 14 14 11 10 9 10 11 11 13 11 12 10 9 9 10 10 10 10 15 16 15 13 11 11 11 9 9 9 8 6 8 7
22 24 33 31 30 24 19 33 34 27 20 19 20 19 19 18 15 15 12 12 10 9 10 14 13 14 12 10 11 10 10 9 9 9 10 14 15 15 12 11 10 10 10 9 8 8 7 6 8
25 30 29 30 23 28 30 34 28 19 11 20 22 21 20 17 16 15 13 11 13 12 13 14 11 11 10 8 8 7 7 8 9 9 10 13 11 14 12 10 9 9 9 9 9 7 7 6 5
28 30 26 28 22 26 28 34 32 28 27 24 22 19 19 19 19 17 15 13 13 15 15 13 13 10 7 7 9 8 9 8 9 8 11 12 11 13 12 9 10 11 9 10 8 8 7 4 3
28 30 32 22 16 22 28 33 27 27 27 27 26 23 23 21 19 18 16 16 16 15 14 12 11 10 9 7 7 4 7 7 8 8 10 11 12 13 12 10 11 11 9 10 10 7 4 5 4
25 27 26 29 15 19 21 29 29 28 27 24 21 22 21 21 21 19 19 18 16 15 13 11 9 9 9 10 7 6 7 7 8 9 9 10 12 13 12 12 10 10 9 9 8 8 8 5 4
24 24 27 26 26 19 22 22 24 26 27 28 26 22 20 19 17 18 20 20 19 17 15 13 10 8 9 11 11 11 9 9 8 10 9 10 12 12 12 12 10 10 9 8 8 7 7 5 6
23 21 26 20 24 25 29 18 15 16 20 19 18 19 20 19 20 21 19 19 19 17 14 12 11 9 9 12 11 10 10 7 8 9 13 12 11 11 12 11 10 10 8 8 8 7 7 6 5
17 17 21 18 21 24 32 25 22 22 25 22 20 16 15 15 13 12 13 14 15 15 14 12 11 9 11 12 12 12 10 11 11 11 11 10 10 9 10 10 9 9 7 8 7 7 7 7 6
16 17 14 15 14 16 21 24 20 7 6 12 12 5 5 6 7 8 10 11 10 14 13 10 11 11 12 13 12 12 12 12 13 14 10 11 9 8 10 10 9 8 9 7 7 6 7 6 7
19 18 14 21 17 20 22 15 16 16 24 14 10 10 3 6 7 8 10 10 9 10 12 11 12 12 13 13 13 12 13 10 10 9 10 8 8 8 11 9 9 9 8 7 6 6 5 6 8
21 19 21 24 24 21 17 23 22 7 9 9 3 5 3 8 9 11 11 8 8 8 11 12 14 14 15 15 13 13 11 11 10 11 10 7 7 8 10 9 8 8 7 7 6 5 6 6 5
21 11 13 15 15 17 18 21 12 26 27 17 5 1 7 10 12 13 10 7 5 7 9 12 14 16 16 16 14 12 12 12 12 11 9 9 8 8 9 8 7 7 7 7 7 5 7 6 6
14 19 10 17 13 16 14 16 18 11 13 12 5 5 11 13 13 13 10 8 3 8 11 13 15 16 16 15 14 14 13 13 12 10 10 9 8 8 8 7 7 8 8 7 7 5 6 8 7
13 9 6 12 14 16 15 4 2 14 15 8 3 9 12 14 14 12 10 5 4 9 13 14 14 15 15 15 15 14 14 13 11 10 9 8 8 7 7 7 8 8 8 7 8 8 6 5 7
Wind_Direction
220 213 230 233 237 237 238 224 245 223 199 138 80 207 212 332 168 251 95 148 145 156 160 174 177 178 176 177 179 177 177 177 176 174 171 174 178 175 168 167 165 163 159 159 157 152 148 146 140
174 175 209 258 252 224 226 220 207 224 235 294 256 233 246 247 258 17 143 148 148 155 163 177 179 181 176 178 180 180 183 181 179 177 176 177 177 177 170 169 166 164 163 163 163 160 156 157 157
192 226 243 234 237 248 248 175 230 223 260 267 269 237 207 227 218 247 96 151 150 161 167 178 178 182 178 179 180 183 186 185 182 178 181 180 179 178 173 172 168 171 173 172 169 167 167 171 174
186 192 239 247 242 233 257 78 286 168 245 215 240 250 206 252 181 199 148 158 159 169 174 164 176 182 181 179 183 186 187 188 187 183 184 184 179 176 177 179 177 179 179 179 177 174 178 186 198
214 255 240 231 246 252 245 267 259 274 276 274 265 250 234 175 150 157 161 165 170 173 182 168 174 185 179 180 184 186 188 190 191 192 187 185 182 178 179 186 185 185 184 183 186 188 194 204 223
213 255 240 241 244 243 250 253 263 262 274 273 259 241 242 88 175 167 165 174 178 174 179 169 173 186 177 184 185 188 191 192 192 193 190 186 186 185 187 192 193 193 196 191 192 196 204 218 241
246 224 245 251 258 267 253 245 249 260 257 248 306 248 211 206 132 161 171 172 175 175 179 180 180 187 185 190 189 191 192 193 193 193 190 190 190 191 194 198 200 199 201 203 200 199 204 218 227
232 243 256 248 251 255 261 250 243 253 253 25 208 237 154 319 199 175 184 177 183 184 189 186 192 189 198 197 198 196 197 195 195 194 193 191 190 194 198 203 207 202 204 204 199 224 203 215 223
237 241 241 243 230 253 260 255 247 255 253 210 281 90 25 51 124 172 194 193 198 198 200 196 194 196 200 204 199 200 208 203 201 198 197 188 203 197 200 206 195 208 212 212 209 206 226 198 221
218 229 243 251 255 248 245 253 256 246 229 223 214 198 47 69 98 203 206 207 207 206 209 206 209 203 201 205 211 203 211 212 211 208 202 207 211 208 211 206 204 212 218 221 228 210 231 205 234
221 242 239 242 246 256 263 258 248 243 247 237 225 230 236 315 298 279 241 240 225 218 218 206 198 208 211 209 208 213 210 211 213 214 206 203 209 210 206 213 204 214 209 221 206 204 228 221 231
239 247 247 255 242 245 256 265 261 256 257 258 225 261 288 286 294 282 270 252 234 238 242 220 205 204 210 219 212 219 219 214 214 207 208 210 207 209 214 214 210 207 211 220 230 215 227 225 223
237 242 245 243 260 254 261 256 257 255 251 252 261 264 266 278 272 271 279 269 268 263 253 227 215 204 211 216 227 225 223 217 215 211 203 210 210 210 210 218 222 206 216 210 226 231 224 225 233
244 244 249 252 236 243 251 257 257 248 253 258 256 258 259 256 258 263 262 260 264 273 278 252 218 211 214 224 226 232 227 224 214 218 211 206 213 208 216 217 220 219 222 221 221 216 228 231 223
256 259 262 242 242 238 240 265 249 246 251 255 250 250 254 256 258 248 248 253 259 261 270 277 269 242 232 233 233 231 234 220 223 219 210 204 210 213 216 221 221 219 219 229 220 227 227 242 250
260 245 245 235 229 241 224 255 258 226 233 245 248 250 253 252 250 244 241 245 248 259 271 271 278 275 252 250 243 234 219 217 219 215 206 205 206 217 206 227 218 220 217 209 219 223 235 238 242
240 243 235 243 229 222 209 241 250 259 242 231 244 245 250 253 235 234 240 244 242 243 259 267 268 263 265 257 247 225 218 214 205 203 201 192 201 202 217 219 214 211 216 213 222 235 228 237 240
235 236 245 257 233 221 224 244 250 244 235 246 241 244 247 251 253 254 249 244 256 256 257 250 249 251 253 258 234 218 206 201 202 196 197 184 195 196 201 211 207 199 210 208 222 208 219 250 271
261 268 267 254 248 255 225 239 245 244 253 248 252 248 249 250 259 267 270 270 267 258 251 250 249 245 223 212 221 203 202 195 191 193 184 185 190 191 192 201 184 200 201 216 195 210 214 234 259
250 253 256 261 284 245 246 242 245 249 250 251 250 251 256 260 260 261 267 262 256 255 254 260 256 248 232 210 222 215 193 187 186 184 179 181 180 183 185 190 179 191 192 198 201 194 209 219 205
261 253 251 253 269 238 255 252 249 243 245 253 258 258 260 261 265 268 265 262 261 256 259 261 254 252 234 224 188 179 151 167 181 171 171 172 179 177 184 185 178 174 206 184 191 203 216 235 205
260 252 255 249 244 242 218 254 240 231 238 242 247 248 255 257 260 261 264 266 265 266 266 260 246 232 221 201 195 179 187 181 180 171 159 159 171 171 178 173 168 182 203 164 189 207 216 202 217
261 252 249 240 240 249 246 252 253 261 254 252 255 255 257 263 261 264 271 273 270 263 255 248 239 225 215 197 201 180 214 160 161 156 144 149 159 166 172 173 178 185 213 179 205 199 213 208 247
251 256 239 247 237 229 236 242 252 252 254 249 249 250 259 258 264 266 276 275 264 250 238 234 222 203 194 195 189 195 177 160 152 149 154 152 158 162 165 172 179 185 197 194 199 199 200 233 234
244 244 230 219 229 245 226 228 239 244 334 296 251 233 288 287 267 280 280 280 251 229 218 207 195 187 183 179 170 172 164 162 149 154 152 150 156 161 163 174 179 183 198 192 195 197 204 205 230
245 231 231 223 224 232 231 235 223 237 252 206 277 269 268 342 337 304 304 288 253 225 197 189 180 174 172 160 156 152 153 152 144 152 140 159 162 169 155 182 179 189 188 188 188 199 214 208 212
252 250 241 265 280 246 216 217 251 226 216 203 184 203 345 353 349 341 330 302 253 211 189 187 174 164 161 146 144 145 146 146 136 134 152 144 143 137 165 172 179 184 188 193 184 221 205 215 203
245 265 270 243 252 240 236 208 224 214 232 235 158 77 10 6 350 354 351 338 243 172 167 165 159 157 146 143 145 141 138 134 136 142 143 148 138 151 162 173 184 184 187 191 189 189 193 200 201
284 225 213 264 261 257 221 219 210 241 188 142 107 24 18 1 349 0 9 340 202 159 150 150 149 145 144 144 138 138 135 133 137 139 141 144 147 160 171 177 178 179 181 190 194 213 175 208 192
241 226 324 266 230 253 278 68 100 151 118 111 17 14 2 354 348 1 29 3 186 154 145 144 145 146 143 140 140 137 135 136 138 139 140 148 160 169 164 170 174 180 183 175 195 199 181 201 208